TimePST,TemperatureF,Dew PointF,Humidity,Sea Level PressureIn,VisibilityMPH,Wind Direction,Wind SpeedMPH,Gust SpeedMPH,PrecipitationIn,Events,Conditions,WindDirDegrees,DateUTC
12:53 AM,43.0,39.9,89,30.03,10.0,Calm,Calm,-,N/A,,Overcast,0,2012-12-13 08:53:00
1:53 AM,42.1,39.0,89,30.04,10.0,Calm,Calm,-,N/A,,Overcast,0,2012-12-13 09:53:00
2:53 AM,42.1,39.9,92,30.04,10.0,Calm,Calm,-,N/A,,Overcast,0,2012-12-13 10:53:00
3:53 AM,42.1,39.0,89,30.04,10.0,Calm,Calm,-,N/A,,Overcast,0,2012-12-13 11:53:00
4:17 AM,42.8,39.2,87,30.04,10.0,Calm,Calm,-,N/A,,Overcast,0,2012-12-13 12:17:00
4:39 AM,42.8,39.2,87,30.04,10.0,East,3.5,-,N/A,,Overcast,80,2012-12-13 12:39:00
4:53 AM,42.1,39.0,89,30.05,10.0,East,3.5,-,N/A,,Overcast,90,2012-12-13 12:53:00
5:03 AM,42.8,39.2,87,30.05,10.0,East,4.6,-,N/A,,Overcast,100,2012-12-13 13:03:00
5:53 AM,42.1,39.0,89,30.05,10.0,Calm,Calm,-,N/A,,Overcast,0,2012-12-13 13:53:00
6:53 AM,42.1,37.9,85,30.04,10.0,East,3.5,-,N/A,,Overcast,100,2012-12-13 14:53:00
7:53 AM,42.1,37.9,85,30.06,10.0,Calm,Calm,-,N/A,,Overcast,0,2012-12-13 15:53:00
8:53 AM,42.1,36.0,79,30.05,-9999.0,SE,4.6,-,N/A,,Overcast,140,2012-12-13 16:53:00
9:53 AM,42.1,35.1,76,30.04,10.0,SSE,3.5,-,N/A,,Partly Cloudy,150,2012-12-13 17:53:00
10:53 AM,44.1,37.0,76,30.02,10.0,ESE,8.1,-,N/A,,Unknown,120,2012-12-13 18:53:00
11:53 AM,45.0,36.0,71,30.00,10.0,ESE,5.8,-,N/A,,Clear,110,2012-12-13 19:53:00
12:53 PM,46.0,36.0,68,29.97,10.0,Calm,Calm,-,N/A,,Clear,0,2012-12-13 20:53:00
1:53 PM,46.0,35.1,66,29.94,10.0,SSW,3.5,-,N/A,,Clear,210,2012-12-13 21:53:00
5:53 PM,39.9,35.1,83,29.90,10.0,SE,3.5,-,N/A,,Clear,130,2012-12-14 01:53:00
6:53 PM,39.9,35.1,83,29.88,10.0,SE,6.9,-,N/A,,Clear,140,2012-12-14 02:53:00
7:10 PM,39.2,35.6,87,29.88,10.0,South,5.8,-,N/A,,Mostly Cloudy,170,2012-12-14 03:10:00
7:53 PM,39.9,35.1,83,29.88,10.0,SSE,3.5,-,N/A,,Overcast,160,2012-12-14 03:53:00
8:12 PM,39.2,35.6,87,29.87,10.0,Calm,Calm,-,N/A,,Overcast,0,2012-12-14 04:12:00
8:53 PM,39.9,35.1,83,29.88,10.0,Calm,Calm,-,N/A,,Overcast,0,2012-12-14 04:53:00
10:53 PM,39.9,35.1,83,29.87,10.0,Calm,Calm,-,N/A,,Overcast,0,2012-12-14 06:53:00
11:53 PM,39.9,36.0,86,29.86,10.0,SE,3.5,-,0.00,Rain,Light Rain,130,2012-12-14 07:53:00